• In Portugal
  • List of Countries
  • For 7 days
  • Water Temperature
  • Satellite Maps
  • Weather Map
  • Weather Widgets
  • user-avatar
    Login

    Hourly Weather Bruges

    Today, 19 October, Friday

    Time Temperature Precipitation Wind Pressure Humidity
    00:00 +10°C° 0 mm 4 mps 768 mmHg 87%
    01:00 +10°C° 0 mm 4 mps 768 mmHg 89%
    02:00 +10°C° 0 mm 4 mps 767 mmHg 91%
    03:00 +8°C° 0 mm 4 mps 767 mmHg 93%
    04:00 +9°C° 0 mm 3 mps 767 mmHg 93%
    05:00 +9°C° 0 mm 3 mps 767 mmHg 93%
    06:00 +8°C° 0 mm 3 mps 768 mmHg 94%
    07:00 +10°C° 0 mm 3 mps 768 mmHg 89%
    08:00 +11°C° 0 mm 3 mps 768 mmHg 84%
    09:00 +12°C° 0 mm 3 mps 768 mmHg 80%
    10:00 +13°C° 0 mm 3 mps 768 mmHg 75%
    11:00 +14°C° 0 mm 3 mps 768 mmHg 70%
    12:00 +17°C° 0 mm 3 mps 768 mmHg 65%
    13:00 +17°C° 0 mm 3 mps 768 mmHg 65%
    14:00 +17°C° 0 mm 3 mps 768 mmHg 65%
    15:00 +17°C° 0 mm 3 mps 768 mmHg 65%
    16:00 +14°C° 0 mm 3 mps 768 mmHg 70%
    17:00 +13°C° 0 mm 3 mps 768 mmHg 75%
    18:00 +11°C° 0 mm 4 mps 769 mmHg 80%
    19:00 +11°C° 0 mm 3 mps 769 mmHg 81%
    20:00 +11°C° 0 mm 3 mps 769 mmHg 82%
    21:00 +10°C° 0 mm 3 mps 770 mmHg 83%
    22:00 +10°C° 0 mm 3 mps 770 mmHg 84%
    23:00 +10°C° 0 mm 3 mps 770 mmHg 85%

    Tomorrow, 20 October, Saturday

    Time Temperature Precipitation Wind Pressure Humidity
    00:00 +9°C° 0 mm 2 mps 770 mmHg 86%
    01:00 +9°C° 0 mm 2 mps 770 mmHg 87%
    02:00 +9°C° 0 mm 2 mps 771 mmHg 87%
    03:00 +8°C° 0 mm 2 mps 771 mmHg 87%
    04:00 +8°C° 0 mm 2 mps 771 mmHg 88%
    05:00 +8°C° 0 mm 2 mps 772 mmHg 88%
    06:00 +8°C° 0 mm 2 mps 772 mmHg 89%
    07:00 +9°C° 0 mm 2 mps 772 mmHg 82%
    08:00 +10°C° 0 mm 2 mps 772 mmHg 76%
    09:00 +12°C° 0 mm 2 mps 773 mmHg 70%
    10:00 +14°C° 0 mm 2 mps 773 mmHg 64%
    11:00 +15°C° 0 mm 2 mps 773 mmHg 58%
    12:00 +16°C° 0 mm 2 mps 773 mmHg 52%
    13:00 +16°C° 0 mm 2 mps 773 mmHg 52%
    14:00 +16°C° 0 mm 2 mps 773 mmHg 52%
    15:00 +16°C° 0 mm 2 mps 772 mmHg 52%
    16:00 +15°C° 0 mm 2 mps 772 mmHg 56%
    17:00 +13°C° 0 mm 2 mps 772 mmHg 61%
    18:00 +12°C° 0 mm 2 mps 773 mmHg 65%
    19:00 +10°C° 0 mm 2 mps 773 mmHg 66%
    20:00 +10°C° 0 mm 2 mps 773 mmHg 68%
    21:00 +9°C° 0 mm 2 mps 773 mmHg 69%
    22:00 +9°C° 0 mm 2 mps 773 mmHg 70%
    23:00 +8°C° 0 mm 2 mps 773 mmHg 71%

    Day after tomorrow, 21 October, Sunday

    Time Temperature Precipitation Wind Pressure Humidity
    00:00 +8°C° 0 mm 2 mps 772 mmHg 71%
    01:00 +8°C° 0 mm 2 mps 772 mmHg 72%
    02:00 +7°C° 0 mm 2 mps 772 mmHg 72%
    03:00 +7°C° 0 mm 2 mps 772 mmHg 73%
    04:00 +7°C° 0 mm 2 mps 771 mmHg 73%
    05:00 +7°C° 0 mm 2 mps 771 mmHg 73%
    06:00 +7°C° 0 mm 2 mps 771 mmHg 74%
    07:00 +8°C° 0 mm 2 mps 771 mmHg 68%
    08:00 +10°C° 0 mm 2 mps 771 mmHg 63%
    09:00 +12°C° 0 mm 2 mps 771 mmHg 58%
    10:00 +14°C° 0 mm 2 mps 771 mmHg 54%
    11:00 +15°C° 0 mm 1 mps 770 mmHg 49%
    12:00 +16°C° 0 mm 1 mps 770 mmHg 45%
    13:00 +18°C° 0 mm 1 mps 770 mmHg 46%
    14:00 +17°C° 0 mm 2 mps 769 mmHg 47%
    15:00 +17°C° 0 mm 2 mps 769 mmHg 48%
    16:00 +15°C° 0 mm 2 mps 769 mmHg 53%
    17:00 +14°C° 0 mm 2 mps 769 mmHg 58%
    18:00 +12°C° 0 mm 2 mps 769 mmHg 63%
    19:00 +11°C° 0 mm 3 mps 770 mmHg 66%
    20:00 +11°C° 0 mm 3 mps 770 mmHg 69%
    21:00 +11°C° 0 mm 4 mps 770 mmHg 72%
    22:00 +12°C° 0.1 mm 5 mps 770 mmHg 76%
    23:00 +11°C° 0.1 mm 6 mps 771 mmHg 80%

    22 October, Monday

    Time Temperature Precipitation Wind Pressure Humidity
    00:00 +12°C° 0.1 mm 7 mps 771 mmHg 84%
    01:00 +12°C° 0.2 mm 7 mps 771 mmHg 83%
    02:00 +12°C° 0.2 mm 8 mps 772 mmHg 83%
    03:00 +12°C° 0.2 mm 8 mps 772 mmHg 82%
    04:00 +11°C° 0 mm 8 mps 773 mmHg 80%
    05:00 +11°C° 0 mm 7 mps 773 mmHg 77%
    06:00 +10°C° 0 mm 7 mps 774 mmHg 74%
    07:00 +11°C° 0 mm 7 mps 774 mmHg 71%
    08:00 +11°C° 0 mm 7 mps 775 mmHg 68%
    09:00 +11°C° 0 mm 6 mps 775 mmHg 65%
    10:00 +11°C° 0 mm 6 mps 775 mmHg 64%
    11:00 +11°C° 0 mm 6 mps 776 mmHg 62%
    12:00 +11°C° 0 mm 6 mps 776 mmHg 61%
    13:00 +11°C° 0 mm 6 mps 776 mmHg 61%
    14:00 +11°C° 0 mm 6 mps 776 mmHg 62%
    15:00 +11°C° 0 mm 6 mps 776 mmHg 63%
    16:00 +12°C° 0 mm 5 mps 776 mmHg 64%
    17:00 +10°C° 0 mm 5 mps 776 mmHg 65%
    18:00 +10°C° 0 mm 5 mps 776 mmHg 67%
    19:00 +10°C° 0 mm 5 mps 776 mmHg 68%
    20:00 +11°C° 0 mm 4 mps 777 mmHg 69%
    21:00 +10°C° 0 mm 4 mps 777 mmHg 70%
    22:00 +10°C° 0 mm 4 mps 777 mmHg 71%
    23:00 +10°C° 0 mm 4 mps 776 mmHg 71%

    23 October, Tuesday

    Time Temperature Precipitation Wind Pressure Humidity
    00:00 +10°C° 0 mm 4 mps 776 mmHg 72%
    01:00 +10°C° 0 mm 5 mps 776 mmHg 74%
    02:00 +10°C° 0 mm 5 mps 775 mmHg 76%
    03:00 +10°C° 0 mm 5 mps 775 mmHg 78%
    04:00 +10°C° 0 mm 5 mps 775 mmHg 81%
    05:00 +9°C° 0 mm 5 mps 775 mmHg 83%
    06:00 +9°C° 0 mm 5 mps 774 mmHg 86%
    07:00 +10°C° 0 mm 5 mps 774 mmHg 83%
    08:00 +10°C° 0 mm 5 mps 774 mmHg 81%
    09:00 +12°C° 0 mm 5 mps 774 mmHg 79%
    10:00 +12°C° 0.1 mm 5 mps 774 mmHg 78%
    11:00 +12°C° 0.1 mm 5 mps 774 mmHg 77%
    12:00 +12°C° 0.1 mm 5 mps 774 mmHg 76%
    13:00 +12°C° 0 mm 5 mps 773 mmHg 76%
    14:00 +12°C° 0 mm 5 mps 773 mmHg 76%
    15:00 +12°C° 0 mm 5 mps 773 mmHg 76%
    16:00 +12°C° 0 mm 5 mps 773 mmHg 78%
    17:00 +10°C° 0 mm 5 mps 772 mmHg 81%
    18:00 +11°C° 0 mm 4 mps 772 mmHg 83%
    19:00 +10°C° 0 mm 5 mps 772 mmHg 84%
    20:00 +9°C° 0 mm 5 mps 772 mmHg 85%
    21:00 +9°C° 0 mm 5 mps 772 mmHg 86%
    22:00 +10°C° 0 mm 5 mps 772 mmHg 86%
    23:00 +10°C° 0 mm 5 mps 772 mmHg 87%

    24 October, Wednesday

    Time Temperature Precipitation Wind Pressure Humidity
    00:00 +10°C° 0 mm 5 mps 772 mmHg 87%
    01:00 +10°C° 0 mm 5 mps 772 mmHg 88%
    02:00 +10°C° 0 mm 6 mps 771 mmHg 89%
    03:00 +10°C° 0 mm 6 mps 771 mmHg 90%
    04:00 +10°C° 0 mm 6 mps 771 mmHg 90%
    05:00 +11°C° 0 mm 6 mps 771 mmHg 90%
    06:00 +11°C° 0 mm 6 mps 771 mmHg 89%
    07:00 +13°C° 0 mm 6 mps 771 mmHg 88%
    08:00 +14°C° 0 mm 6 mps 771 mmHg 87%
    09:00 +15°C° 0 mm 6 mps 772 mmHg 85%
    10:00 +15°C° 0 mm 6 mps 772 mmHg 84%
    11:00 +15°C° 0 mm 6 mps 772 mmHg 83%
    12:00 +15°C° 0 mm 7 mps 772 mmHg 82%
    13:00 +15°C° 0 mm 7 mps 772 mmHg 82%
    14:00 +15°C° 0 mm 7 mps 771 mmHg 82%
    15:00 +15°C° 0 mm 7 mps 771 mmHg 82%
    16:00 +15°C° 0.1 mm 7 mps 771 mmHg 82%
    17:00 +14°C° 0.1 mm 7 mps 771 mmHg 81%
    18:00 +14°C° 0.1 mm 7 mps 772 mmHg 81%
    19:00 +14°C° 0 mm 6 mps 772 mmHg 79%
    20:00 +14°C° 0 mm 6 mps 772 mmHg 77%
    21:00 +13°C° 0 mm 5 mps 772 mmHg 76%
    22:00 +13°C° 0 mm 5 mps 772 mmHg 76%
    23:00 +13°C° 0 mm 5 mps 772 mmHg 77%
    Show more